Tracking 35237 objects as of 5-Sep-2026
HD Live streaming from Space Station
objects crossing your sky now

COSMOS 1368 DEB


COSMOS 1368 DEB is no longer on orbit


NORAD ID: 13254
Int'l Code: 1982-046C
Launch date: May 21, 1982
Source: Commonwealth of Independent States (former USSR) (CIS)
Launch site: TYURATAM MISSILE AND SPACE COMPLEX (TTMTR)
Decay date: 1982-06-06

Note: This is SATELLITE DEBRIS
Your satellite tracking list
Your tracking list is empty




NASA's NSSDC Master Catalog

Two Line Element Set (TLE):
1 13254U 82046  C 82156.82071788  .28490950 +15821-4 +94708-3 0  9997
2 13254 070.3898 067.3466 0009008 228.2128 133.2777 16.43942004002461
Source of the keplerian elements: AFSPC